Location: WHS+Essen
(51.3947°N, 6.9794°E)
Time: 08:49:36
(UTC+02:00)

ISS - Pass Details

Date: 21 March 2019
Orbit: 408 x 410 km, 51.6° (Epoch: 24 April)

Event Time Altitude Azimuth Distance (km) Brightness Sun altitude
Rises 20:21:43 0° 206° (SSW) 2,325 0.1 -15.4°
Reaches altitude 10° 20:24:15 10° 186° (S) 1,468 -1.2 -15.7°
Enters shadow 20:24:45 12° 179° (S) 1,335 -1.4 -15.8°
